GW2765 Weather Reports


Display with metric or nautical units.
time (UTC)temp
F
wind
direction
speed
MPH
gust
MPH
rain 1hr
in
rain 24hr
in
rain mn
in
humidity
%
barometer
mb
20260831010105 106 259 7.0 17.0 0.00 0.00 0.00 19 1005.8
20260831005605 106 252 6.0 17.0 0.00 0.00 0.00 20 1005.8
20260831005107 106 305 6.0 17.0 0.00 0.00 0.00 20 1005.8
20260831004605 106 311 6.0 15.0 0.00 0.00 0.00 20 1005.6
20260831004105 107 314 5.0 14.0 0.00 0.00 0.00 19 1005.7
20260831003606 107 329 1.0 13.0 0.00 0.00 0.00 19 1005.8
20260831003104 108 293 1.0 5.0 0.00 0.00 0.00 22 1005.8
20260831002605 107 145 1.0 5.0 0.00 0.00 0.00 21 1005.8
20260831002103 107 212 2.0 7.0 0.00 0.00 0.00 21 1006.0
20260831001828 107 90 2.0 7.0 0.00 0.00 0.00 21 1005.9
20260831001336 107 42 1.0 4.0 0.00 0.00 0.00 22 1006.0
20260831000603 108 72 1.0 4.0 0.00 0.00 0.00 22 1005.9
20260830235823 107 25 1.0 3.0 0.00 0.00 0.00 21 1006.0
20260830235103 108 30 0.0 3.0 0.00 0.00 0.00 21 1006.0
20260830234602 108 276 0.0 2.0 0.00 0.00 0.00 22 1006.1
20260830234101 107 194 1.0 4.0 0.00 0.00 0.00 21 1006.1
20260830233601 107 347 1.0 4.0 0.00 0.00 0.00 21 1006.2
20260830233102 107 276 1.0 4.0 0.00 0.00 0.00 21 1006.2
20260830232601 107 345 2.0 4.0 0.00 0.00 0.00 22 1006.2
20260830232327 107 333 1.0 4.0 0.00 0.00 0.00 22 1006.3
20260830231601 107 56 1.0 4.0 0.00 0.00 0.00 21 1006.3
20260830231101 107 75 1.0 5.0 0.00 0.00 0.00 23 1006.3
20260830230601 107 66 1.0 5.0 0.00 0.00 0.00 22 1006.4
20260830225600 107 330 1.0 3.0 0.00 0.00 0.00 22 1006.4
20260830225101 107 136 1.0 4.0 0.00 0.00 0.00 22 1006.5
20260830224601 107 176 1.0 4.0 0.00 0.00 0.00 22 1006.4
20260830224101 107 59 1.0 4.0 0.00 0.00 0.00 22 1006.5
20260830223601 106 25 1.0 4.0 0.00 0.00 0.00 24 1006.7
20260830223324 106 91 1.0 4.0 0.00 0.00 0.00 23 1006.8
20260830222602 106 35 2.0 6.0 0.00 0.00 0.00 23 1006.8
20260830222102 106 295 2.0 6.0 0.00 0.00 0.00 24 1007.0
20260830221824 107 309 1.0 5.0 0.00 0.00 0.00 23 1007.0
20260830221101 106 294 1.0 5.0 0.00 0.00 0.00 23 1007.2
20260830220826 106 84 2.0 5.0 0.00 0.00 0.00 26 1007.2
20260830220334 106 35 2.0 7.0 0.00 0.00 0.00 24 1007.4
20260830215838 106 238 2.0 7.0 0.00 0.00 0.00 24 1007.4
20260830215101 106 178 2.0 6.0 0.00 0.00 0.00 26 1007.5
20260830214602 106 64 2.0 5.0 0.00 0.00 0.00 26 1007.4
20260830214101 106 32 2.0 6.0 0.00 0.00 0.00 27 1007.5
20260830213601 106 80 1.0 7.0 0.00 0.00 0.00 24 1007.7
20260830213101 105 86 2.0 7.0 0.00 0.00 0.00 26 1007.8
20260830212601 105 148 2.0 8.0 0.00 0.00 0.00 24 1007.9
20260830212102 106 64 1.0 8.0 0.00 0.00 0.00 27 1007.8
20260830211102 106 35 2.0 7.0 0.00 0.00 0.00 28 1008.1
20260830210602 106 198 3.0 7.0 0.00 0.00 0.00 24 1008.2
20260830210101 106 132 1.0 5.0 0.00 0.00 0.00 24 1008.2
20260830205603 106 179 1.0 4.0 0.00 0.00 0.00 26 1008.4
20260830205101 104 207 1.0 5.0 0.00 0.00 0.00 26 1008.4
20260830204601 104 43 2.0 6.0 0.00 0.00 0.00 27 1008.5
20260830204101 105 71 1.0 6.0 0.00 0.00 0.00 27 1008.7
20260830203823 104 34 2.0 6.0 0.00 0.00 0.00 28 1008.8
20260830203102 103 48 2.0 6.0 0.00 0.00 0.00 27 1008.8
20260830202601 104 354 2.0 6.0 0.00 0.00 0.00 29 1008.8
20260830202332 103 311 2.0 6.0 0.00 0.00 0.00 29 1008.9
20260830201606 103 32 2.0 7.0 0.00 0.00 0.00 28 1008.9
20260830201101 103 348 2.0 7.0 0.00 0.00 0.00 29 1008.9
20260830200601 104 13 3.0 7.0 0.00 0.00 0.00 28 1008.9
20260830200101 103 25 2.0 7.0 0.00 0.00 0.00 30 1009.0
20260830195603 103 60 1.0 3.0 0.00 0.00 0.00 28 1009.1
20260830195103 103 295 1.0 5.0 0.00 0.00 0.00 28 1009.2
20260830194602 103 72 2.0 7.0 0.00 0.00 0.00 27 1009.3
20260830194324 103 136 2.0 7.0 0.00 0.00 0.00 28 1009.3
20260830193823 103 95 2.0 6.0 0.00 0.00 0.00 28 1009.3
20260830193101 103 117 2.0 6.0 0.00 0.00 0.00 28 1009.5
20260830192602 102 103 2.0 7.0 0.00 0.00 0.00 28 1009.5
20260830192101 102 110 3.0 7.0 0.00 0.00 0.00 29 1009.5
20260830191603 102 116 2.0 7.0 0.00 0.00 0.00 28 1009.5
20260830190602 103 64 3.0 8.0 0.00 0.00 0.00 28 1009.8
20260830190325 101 136 3.0 12.0 0.00 0.00 0.00 28 1009.7
20260830185601 101 137 3.0 12.0 0.00 0.00 0.00 27 1009.8
20260830184601 101 226 3.0 11.0 0.00 0.00 0.00 28 1010.0
20260830184101 102 108 3.0 11.0 0.00 0.00 0.00 27 1010.1
20260830183834 101 137 2.0 8.0 0.00 0.00 0.00 27 1010.2
20260830183332 102 56 3.0 8.0 0.00 0.00 0.00 27 1010.2
20260830182605 102 126 3.0 8.0 0.00 0.00 0.00 28 1010.3
20260830182324 101 125 3.0 10.0 0.00 0.00 0.00 27 1010.3
20260830181602 102 85 2.0 10.0 0.00 0.00 0.00 27 1010.2
20260830181101 101 94 3.0 11.0 0.00 0.00 0.00 27 1010.2
20260830180601 101 97 3.0 11.0 0.00 0.00 0.00 27 1010.3
20260830180326 101 103 3.0 8.0 0.00 0.00 0.00 28 1010.3
20260830175601 101 99 2.0 7.0 0.00 0.00 0.00 28 1010.4
20260830175102 100 98 2.0 6.0 0.00 0.00 0.00 30 1010.3
20260830174601 100 30 1.0 6.0 0.00 0.00 0.00 29 1010.4
20260830174101 101 68 2.0 6.0 0.00 0.00 0.00 27 1010.3
20260830173601 100 127 2.0 6.0 0.00 0.00 0.00 28 1010.3
20260830173104 100 120 1.0 4.0 0.00 0.00 0.00 28 1010.3
20260830172601 100 66 0.0 3.0 0.00 0.00 0.00 28 1010.3
20260830172102 100 92 0.0 2.0 0.00 0.00 0.00 29 1010.3
20260830171601 99 188 1.0 4.0 0.00 0.00 0.00 30 1010.2
20260830171101 99 217 1.0 4.0 0.00 0.00 0.00 30 1010.3
20260830170601 98 238 1.0 3.0 0.00 0.00 0.00 31 1010.3
20260830165559 99 157 1.0 3.0 0.00 0.00 0.00 31 1010.3
20260830165053 99 179 0.0 3.0 0.00 0.00 0.00 31 1010.3
20260830164547 98 151 0.0 3.0 0.00 0.00 0.00 32 1010.3
20260830163534 97 151 2.0 3.0 0.00 0.00 0.00 33 1010.1
20260830162531 97 172 1.0 3.0 0.00 0.00 0.00 32 1010.2
20260830162031 97 226 1.0 3.0 0.00 0.00 0.00 33 1010.0
20260830161531 97 146 1.0 4.0 0.00 0.00 0.00 34 1010.1
20260830161031 96 210 1.0 4.0 0.00 0.00 0.00 33 1010.1
20260830160530 96 235 0.0 3.0 0.00 0.00 0.00 34 1010.0
20260830160030 95 199 0.0 1.0 0.00 0.00 0.00 35 1010.0
20260830155530 94 326 0.0 1.0 0.00 0.00 0.00 35 1010.0
20260830155030 94 295 0.0 1.0 0.00 0.00 0.00 34 1010.0
20260830154531 94 15 0.0 1.0 0.00 0.00 0.00 37 1010.0
20260830154030 93 284 0.0 1.0 0.00 0.00 0.00 36 1010.0
20260830153533 92 6 0.0 3.0 0.00 0.00 0.00 38 1010.1
20260830153031 92 309 1.0 3.0 0.00 0.00 0.00 39 1010.1
20260830152531 91 0 0.0 3.0 0.00 0.00 0.00 39 1010.2
20260830152030 91 342 0.0 3.0 0.00 0.00 0.00 38 1010.2
20260830151530 91 11 0.0 3.0 0.00 0.00 0.00 39 1010.3
20260830151030 90 310 1.0 3.0 0.00 0.00 0.00 38 1010.2
20260830150530 90 355 0.0 3.0 0.00 0.00 0.00 39 1010.3
20260830150022 90 285 0.0 3.0 0.00 0.00 0.00 39 1010.4
20260830145517 90 254 0.0 1.0 0.00 0.00 0.00 39 1010.3
20260830145017 90 261 0.0 1.0 0.00 0.00 0.00 40 1010.3
20260830144516 90 228 0.0 1.0 0.00 0.00 0.00 41 1010.2
20260830144017 89 169 0.0 1.0 0.00 0.00 0.00 41 1010.2
20260830143744 89 162 0.0 0.0 0.00 0.00 0.00 40 1010.2
20260830143014 90 162 0.0 0.0 0.00 0.00 0.00 40 1010.0
20260830142511 90 161 0.0 2.0 0.00 0.00 0.00 40 1010.1
20260830142009 89 161 0.0 2.0 0.00 0.00 0.00 43 1010.0
20260830141734 89 178 0.0 0.0 0.00 0.00 0.00 42 1010.0
20260830141006 87 178 0.0 0.0 0.00 0.00 0.00 44 1009.9
20260830140501 87 178 0.0 0.0 0.00 0.00 0.00 45 1009.8
20260830140001 85 178 0.0 0.0 0.00 0.00 0.00 46 1009.7
20260830135502 84 178 0.0 0.0 0.00 0.00 0.00 47 1009.7
20260830135001 84 178 0.0 0.0 0.00 0.00 0.00 48 1009.6
20260830134501 83 178 0.0 0.0 0.00 0.00 0.00 48 1009.5
20260830134003 83 178 0.0 0.0 0.00 0.00 0.00 48 1009.4
20260830133501 84 178 0.0 1.0 0.00 0.00 0.00 47 1009.3
20260830133001 84 178 0.0 1.0 0.00 0.00 0.00 47 1009.4
20260830132501 84 178 0.0 0.0 0.00 0.00 0.00 47 1009.3
20260830132002 84 178 0.0 0.0 0.00 0.00 0.00 46 1009.3
20260830131721 84 180 0.0 0.0 0.00 0.00 0.00 46 1009.2
20260830130952 85 180 0.0 0.0 0.00 0.00 0.00 46 1009.2
20260830130448 85 179 0.0 0.0 0.00 0.00 0.00 44 1009.2
20260830125940 86 180 1.0 2.0 0.00 0.00 0.00 43 1009.3
20260830125441 86 180 1.0 2.0 0.00 0.00 0.00 42 1009.3
20260830124942 86 212 0.0 2.0 0.00 0.00 0.00 43 1009.1
20260830124442 86 172 1.0 4.0 0.00 0.00 0.00 43 1009.0
20260830123941 86 195 1.0 4.0 0.00 0.00 0.00 43 1008.9
20260830123442 86 239 0.0 2.0 0.00 0.00 0.00 44 1009.0
20260830122942 86 184 0.0 2.0 0.00 0.00 0.00 44 1008.9
20260830122441 86 253 1.0 4.0 0.00 0.00 0.00 43 1008.9
20260830121942 86 238 1.0 4.0 0.00 0.00 0.00 44 1008.9
20260830121442 85 205 0.0 2.0 0.00 0.00 0.00 44 1008.8
20260830120942 85 143 0.0 2.0 0.00 0.00 0.00 44 1008.8
20260830120441 85 219 0.0 2.0 0.00 0.00 0.00 45 1008.9
20260830115940 85 103 0.0 1.0 0.00 0.00 0.00 44 1008.7
20260830115437 86 161 0.0 0.0 0.00 0.00 0.00 45 1008.8
20260830114938 85 205 0.0 0.0 0.00 0.00 0.00 45 1008.7
20260830114437 86 205 0.0 3.0 0.00 0.00 0.00 45 1008.6
20260830113433 86 222 1.0 2.0 0.00 0.00 0.00 44 1008.6
20260830112930 87 147 0.0 1.0 0.00 0.00 0.00 43 1008.5
20260830112429 87 146 0.0 2.0 0.00 0.00 0.00 43 1008.5
20260830111930 87 221 0.0 2.0 0.00 0.00 0.00 43 1008.5
20260830111653 87 200 0.0 1.0 0.00 0.00 0.00 43 1008.5
20260830110931 87 204 0.0 2.0 0.00 0.00 0.00 43 1008.6
20260830105930 87 175 0.0 1.0 0.00 0.00 0.00 43 1008.5
20260830105430 87 117 0.0 2.0 0.00 0.00 0.00 43 1008.5
20260830104931 87 99 1.0 3.0 0.00 0.00 0.00 43 1008.4
20260830104430 87 218 0.0 3.0 0.00 0.00 0.00 43 1008.4
20260830103931 87 213 1.0 3.0 0.00 0.00 0.00 43 1008.5
20260830103429 87 212 1.0 4.0 0.00 0.00 0.00 43 1008.4
20260830102930 87 240 1.0 4.0 0.00 0.00 0.00 43 1008.4
20260830102428 87 239 0.0 2.0 0.00 0.00 0.00 44 1008.3
20260830101930 87 98 0.0 1.0 0.00 0.00 0.00 44 1008.2
20260830101428 87 134 0.0 1.0 0.00 0.00 0.00 44 1008.2
20260830100930 87 236 0.0 1.0 0.00 0.00 0.00 43 1008.2
20260830100431 87 236 0.0 1.0 0.00 0.00 0.00 44 1008.1
20260830095931 87 91 0.0 1.0 0.00 0.00 0.00 44 1008.0
20260830095433 87 223 0.0 2.0 0.00 0.00 0.00 43 1007.9
20260830094931 87 221 0.0 2.0 0.00 0.00 0.00 44 1007.9
20260830094431 87 187 0.0 1.0 0.00 0.00 0.00 44 1007.8
20260830093931 87 106 0.0 1.0 0.00 0.00 0.00 43 1007.7
20260830093430 87 168 0.0 2.0 0.00 0.00 0.00 43 1007.7
20260830092931 88 214 0.0 2.0 0.00 0.00 0.00 43 1007.8
20260830092431 88 117 0.0 2.0 0.00 0.00 0.00 43 1007.8
20260830091930 88 177 0.0 2.0 0.00 0.00 0.00 43 1007.8
20260830091431 88 206 0.0 0.0 0.00 0.00 0.00 42 1007.8
20260830090931 88 206 0.0 1.0 0.00 0.00 0.00 42 1007.8
20260830090430 89 206 0.0 1.0 0.00 0.00 0.00 42 1007.8
20260830085929 89 208 0.0 1.0 0.00 0.00 0.00 41 1007.9
20260830085651 89 255 0.0 1.0 0.00 0.00 0.00 41 1007.9
20260830084930 89 155 0.0 1.0 0.00 0.00 0.00 41 1007.8
20260830084429 89 155 0.0 2.0 0.00 0.00 0.00 41 1007.9
20260830084201 89 172 0.0 2.0 0.00 0.00 0.00 41 1007.9
20260830083701 89 179 0.0 2.0 0.00 0.00 0.00 41 1007.9
20260830083153 89 167 0.0 2.0 0.00 0.00 0.00 41 1007.9
20260830082429 89 174 0.0 0.0 0.00 0.00 0.00 41 1007.8
20260830081931 89 174 0.0 0.0 0.00 0.00 0.00 41 1007.9
20260830081430 89 163 0.0 0.0 0.00 0.00 0.00 40 1007.8
20260830080930 89 164 0.0 0.0 0.00 0.00 0.00 41 1007.9
20260830080432 89 163 0.0 1.0 0.00 0.00 0.00 40 1007.9
20260830075928 90 163 0.0 2.0 0.00 0.00 0.00 40 1007.8
20260830075656 90 203 0.0 2.0 0.00 0.00 0.00 40 1007.9
20260830074929 91 124 0.0 0.0 0.00 0.00 0.00 38 1008.0
20260830074429 91 124 0.0 1.0 0.00 0.00 0.00 38 1008.0
20260830073930 91 124 0.0 1.0 0.00 0.00 0.00 38 1007.9
20260830073428 91 124 0.0 1.0 0.00 0.00 0.00 37 1008.1
20260830073212 92 124 0.0 1.0 0.00 0.00 0.00 37 1008.0
20260830072429 92 124 0.0 1.0 0.00 0.00 0.00 36 1008.0
20260830071929 92 210 0.0 0.0 0.00 0.00 0.00 36 1008.1
20260830071430 92 210 0.0 1.0 0.00 0.00 0.00 36 1008.1
20260830070931 92 210 0.0 2.0 0.00 0.00 0.00 36 1008.2
20260830070429 92 176 0.0 2.0 0.00 0.00 0.00 36 1008.3
20260830065929 92 60 0.0 1.0 0.00 0.00 0.00 36 1008.2
20260830065430 92 70 0.0 1.0 0.00 0.00 0.00 35 1008.2
20260830065410 93 70 0.0 1.0 0.00 0.00 0.00 36 1008.2
20260830064430 93 70 0.0 1.0 0.00 0.00 0.00 35 1007.9
20260830063929 93 54 0.0 0.0 0.00 0.00 0.00 34 1007.9
20260830063429 93 54 0.0 0.0 0.00 0.00 0.00 34 1008.0
20260830062929 94 54 0.0 0.0 0.00 0.00 0.00 33 1007.9
20260830062428 94 54 0.0 0.0 0.00 0.00 0.00 33 1007.9
20260830061930 94 53 0.0 1.0 0.00 0.00 0.00 33 1007.9
20260830061429 94 53 0.0 1.0 0.00 0.00 0.00 32 1007.7
20260830060928 95 35 0.0 3.0 0.00 0.00 0.00 32 1007.9
20260830060429 95 34 1.0 3.0 0.00 0.00 0.00 32 1007.8
20260830055929 95 60 1.0 3.0 0.00 0.00 0.00 31 1007.8
20260830055429 95 47 1.0 4.0 0.00 0.00 0.00 31 1007.9
20260830054429 95 75 0.0 4.0 0.00 0.00 0.00 31 1007.9
20260830053928 95 65 0.0 4.0 0.00 0.00 0.00 31 1008.0
20260830053429 95 103 0.0 1.0 0.00 0.00 0.00 31 1007.9
20260830052928 96 106 0.0 1.0 0.00 0.00 0.00 31 1007.9
20260830052430 96 106 0.0 1.0 0.00 0.00 0.00 31 1007.7
20260830051430 96 50 0.0 2.0 0.00 0.00 0.00 30 1007.6
20260830050930 96 8 0.0 2.0 0.00 0.00 0.00 30 1007.6
20260830050430 96 12 0.0 1.0 0.00 0.00 0.00 30 1007.7
20260830045929 97 57 0.0 2.0 0.00 0.00 0.00 30 1007.6
20260830045656 97 58 1.0 4.0 0.00 0.00 0.00 30 1007.6
20260830044931 97 104 1.0 4.0 0.00 0.00 0.00 29 1007.6
20260830044425 97 88 0.0 2.0 0.00 0.00 0.00 29 1007.6
20260830043925 97 162 0.0 4.0 0.00 0.00 0.00 30 1007.6
20260830043424 97 338 0.0 4.0 0.00 0.00 0.00 29 1007.6
20260830042924 97 6 0.0 3.0 0.00 0.00 0.00 30 1007.4
20260830042424 98 58 0.0 3.0 0.00 0.00 0.00 30 1007.5
20260830041924 98 56 0.0 2.0 0.00 0.00 0.00 29 1007.5
20260830041658 98 55 0.0 2.0 0.00 0.00 0.00 30 1007.5
20260830040925 98 88 0.0 3.0 0.00 0.00 0.00 29 1007.1
20260830040425 99 101 0.0 3.0 0.00 0.00 0.00 29 1007.0
20260830035921 99 85 0.0 2.0 0.00 0.00 0.00 29 1007.0
20260830035422 99 84 0.0 2.0 0.00 0.00 0.00 28 1006.9
20260830035145 100 134 0.0 2.0 0.00 0.00 0.00 28 1006.8
20260830034648 100 356 0.0 2.0 0.00 0.00 0.00 28 1006.7
20260830033921 100 322 0.0 1.0 0.00 0.00 0.00 28 1006.7
20260830033421 100 248 0.0 1.0 0.00 0.00 0.00 28 1006.7
20260830032921 101 83 0.0 2.0 0.00 0.00 0.00 28 1006.6
20260830032421 101 82 0.0 2.0 0.00 0.00 0.00 27 1006.5
20260830031922 101 77 0.0 2.0 0.00 0.00 0.00 28 1006.4
20260830031417 102 77 1.0 3.0 0.00 0.00 0.00 27 1006.3
20260830030918 102 117 2.0 4.0 0.00 0.00 0.00 27 1006.2
20260830030417 102 244 1.0 4.0 0.00 0.00 0.00 27 1006.1
20260830025918 102 190 0.0 1.0 0.00 0.00 0.00 27 1006.1
20260830025418 102 298 1.0 5.0 0.00 0.00 0.00 27 1006.0
20260830024918 103 298 3.0 6.0 0.00 0.00 0.00 27 1005.9
20260830024417 103 259 4.0 11.0 0.00 0.00 0.00 26 1005.8
20260830023917 104 253 4.0 11.0 0.00 0.00 0.00 24 1005.7
20260830023642 104 203 3.0 11.0 0.00 0.00 0.00 26 1005.7
20260830022914 104 259 3.0 7.0 0.00 0.00 0.00 24 1005.7
20260830022412 104 248 4.0 8.0 0.00 0.00 0.00 24 1005.6
20260830021914 105 257 4.0 10.0 0.00 0.00 0.00 24 1005.5
20260830021413 105 199 5.0 11.0 0.00 0.00 0.00 26 1005.5
20260830020913 105 155 6.0 11.0 0.00 0.00 0.00 24 1005.5
20260830020413 105 219 5.0 11.0 0.00 0.00 0.00 24 1005.5
20260830015412 106 200 5.0 12.0 0.00 0.00 0.00 24 1005.5
20260830015140 106 231 6.0 12.0 0.00 0.00 0.00 23 1005.5
20260830014409 106 218 7.0 12.0 0.00 0.00 0.00 24 1005.6
20260830014137 106 247 7.0 12.0 0.00 0.00 0.00 23 1005.5
20260830013408 107 246 7.0 12.0 0.00 0.00 0.00 23 1005.5
20260830012908 107 233 8.0 13.0 0.00 0.00 0.00 23 1005.4
20260830012408 107 175 9.0 17.0 0.00 0.00 0.00 23 1005.5
20260830011411 107 251 10.0 17.0 0.00 0.00 0.00 23 1005.7
20260830010910 108 238 10.0 17.0 0.00 0.00 0.00 23 1005.7